LOWW

Vienna International/Schwechat

Airport
ICAO code
LOWW
IATA Code
VIE
Summary
ICAO Region
EUR
ICAO Territory
Location

Schwechat, Vienna

Serving
Vienna
Elevation
600 ft
Coordinates
48° 6' 37" N , 16° 34' 11" E
KCC
Metar
LOWW 250920Z 12005KT 030V160 9999 FEW008 FEW040CB 20/16 Q1018 BECMG 16010KT

International airport serving Vienna, capital of Austria.

Climatology

Humid Continental climate (Köppen climate classification Dfb)

Runways

Designator Length Width Surface Rops
11/29 3500 45 ASP Yes/Yes
16/34 3600 45 ASP Yes/Yes

Airport map

Aerial View

Airport accidents

SKYbrary Partners:

Safety knowledge contributed by: